www.pogodaiklimat.ru
ПОГОДА в Вест Честер
Время
и дата
22:55 24.02
23:15 24.02
23:35 24.02
23:55 24.02
00:15 25.02
00:35 25.02
00:55 25.02
01:15 25.02
01:35 25.02
01:55 25.02
02:15 25.02
02:35 25.02
02:55 25.02
03:15 25.02
03:35 25.02
03:55 25.02
04:15 25.02
04:35 25.02
04:55 25.02
05:15 25.02
05:35 25.02
05:55 25.02
06:15 25.02
06:35 25.02
06:55 25.02
07:15 25.02
07:35 25.02
07:55 25.02
08:15 25.02
08:35 25.02
08:55 25.02
09:15 25.02
09:35 25.02
09:55 25.02
10:15 25.02
10:35 25.02
10:55 25.02
11:15 25.02
11:35 25.02
11:55 25.02
12:15 25.02
12:35 25.02
12:55 25.02
13:15 25.02
13:35 25.02
13:55 25.02
14:15 25.02
14:35 25.02
Ветер
(напр.,м/с)
Видим. Явления Облачность Т
(С)
Тd
(С)
f
(%)
Тe
(С)
Тes
(С)
Комфортность P
(гПа)
Po
(гПа)
Тmin
(С)
Tmax
(С)
R
(мм)
R24
(мм)
S
(см)
С 5
{8}
16 км ясно -1.0 -13.0 40 -6 -6 998.9
С 5 16 км ясно -2.0 -13.0 43 -8 -8 999.3
С 4 16 км ясно -2.0 -13.0 43 -7 -7 999.6
С 4 16 км ясно -2.0 -13.0 43 -7 -7 999.6
С 5
{8}
16 км ясно -2.0 -13.0 43 -8 -8 999.6
С 4 16 км ясно -2.0 -13.0 43 -7 -7 999.9
С 4 16 км ясно -2.0 -13.0 43 -7 -7 1000.3
С 2 16 км ясно -2.0 -13.0 43 -5 -5 1000.6
С 3 16 км ясно -3.0 -13.0 46 -7 -7 1000.6
штиль 0 16 км ясно -3.0 -13.0 46 -3 -3 1000.9
С 2 16 км ясно -3.0 -13.0 46 -6 -6 1001.3
С 2 16 км ясно -3.0 -12.0 50 -6 -6 1001.3
штиль 0 16 км ясно -3.0 -12.0 50 -3 -3 1001.6
штиль 0 16 км ясно -3.0 -12.0 50 -3 -3 1001.6
СВ 2 16 км ясно -4.0 -12.0 54 -8 -8 1001.9
штиль 0 16 км ясно -4.0 -12.0 54 -4 -4 1002.3
штиль 0 16 км ясно -4.0 -12.0 54 -4 -4 1002.3
штиль 0 16 км ясно -4.0 -12.0 54 -4 -4 1002.6
С 2 16 км ясно -5.0 -12.0 58 -9 -9 1002.9
штиль 0 16 км ясно -5.0 -12.0 58 -6 -6 1003.3
штиль 0 16 км ясно -5.0 -12.0 58 -6 -6 1003.3
штиль 0 16 км ясно -5.0 -12.0 58 -6 -6 1003.3
штиль 0 16 км ясно -6.0 -11.0 68 -7 -7 1003.6
штиль 0 16 км ясно -6.0 -11.0 68 -7 -7 1003.6
С 2 16 км ясно -5.0 -12.0 58 -9 -9 1003.9
штиль 0 16 км ясно -5.0 -12.0 58 -6 -5 1004.3
штиль 0 16 км ясно -4.0 -12.0 54 -4 -4 1004.6
штиль 0 16 км ясно -3.0 -13.0 46 -3 -3 1004.9
С 2 16 км ясно -3.0 -13.0 46 -6 -5 1004.9
С 2 16 км ясно -3.0 -13.0 46 -6 -5 1005.3
С 3 16 км ясно -2.0 -13.0 43 -6 -5 1005.3
С 2 16 км ясно -2.0 -13.0 43 -5 -1 1005.3
С 2 16 км ясно -1.0 -12.0 43 -4 0 1005.3
СВ 2 16 км ясно -1.0 -12.0 43 -4 0 1005.3
штиль 0 16 км ясно 0.0 -13.0 37 0 +9 1004.9
штиль 0 16 км ясно 0.0 -12.0 40 0 +9 1004.9
штиль 0 16 км ясно 0.0 -11.0 43 0 +9 1004.6
штиль 0 16 км ясно 0.0 -12.0 40 0 +12 1004.6
ЮВ 2 16 км ясно +1.0 -12.0 37 -1 +7 1004.3
штиль 0 16 км ясно +1.0 -12.0 37 +1 +13 опасность
простуды
1003.9
штиль 0 16 км ясно +3.0 -11.0 35 +3 +16 опасность
простуды
1003.9
СЗ 2 16 км ясно +3.0 -11.0 35 +1 +10 опасность
простуды
1003.9
СЗ 2 16 км ясно +3.0 -12.0 32 +1 +11 опасность
простуды
1003.3
ЮЗ 2 16 км ясно +4.0 -10.0 35 +2 +11 опасность
простуды
1003.3
ЮЗ 3 16 км ясно +5.0 -10.0 33 +2 +10 опасность
простуды
1002.9
штиль 0 16 км ясно +5.0 -10.0 33 +5 +17 опасность
простуды
1002.6
ЮЗ 2 16 км ясно +5.0 -10.0 33 +3 +10 1002.3
ЮЗ 3 16 км ясно +6.0 -9.0 33 +4 +9 1002.3
Местоположение метеостанции West Chester Brandywine Airport: широта 39.9889 долгота -75.5803 высота над уровнем моря 141 м.
В архиве по умолчанию представлена погода в Вест Честер за последние 1-2 суток. Обновление информации о фактической погоде в базе происходит ежечасно! Архивные данные за месяц целиком и за предыдущие месяцы Вы можете получить, выбрав интересующий диапазон дат из раскрывающегося списка и нажав кнопку "Ввод!".
Внимание! Архив погоды МЕТАР в базе сайта по станциям, не включенным в климатический монитор, хранится не более 60 дней. Нет смысла пытаться выбрать более раннюю дату.
*Определитесь, кто Вы:
Внимание! Время в таблицах - местное (без учета летнего времени). Для получения всемирного времени необходимо вычесть поправку, которая равна -5 ч.
Смотрите также архив погоды в соседних городах и на ближайших метеорологических станциях:
Партнеры нашего сайта:      
Пояснения к столбцам:
  • Ветер - указаны скорость ветра в м/с - средняя за 10 мин, порывы в срок и между сроками (в фигурных скобках) и направление, откуда дует ветер: С - северный,
  • СВ - северо-восточный, В - восточный, ЮВ - юго-восточный, Ю - южный, ЮЗ - юго-западный, З - западный, СЗ - северо-западный.
  • Видимость - горизонтальная дальность видимости в метрах или километрах. При видимости от 1 до 10 км при отсутствии осадков обычно наблюдается дымка, при ухудшении видимости до 1 км и менее - туман. В сухую погоду видимость может ухудшаться дымом, пылью или мглою.
  • Явления - указаны атмосферные явления, наблюдавшиеся в срок или в последний час перед сроком; фигурными скобками обозначены явления, наблюдавшиеся между сроками (за 1-3 часа до срока); квадратными скобками обозначены град или гололедные отложения с указанием их диаметра в мм.
  • Облачность - указаны через наклонную черту общая и нижняя облачность в баллах и высота нижней границы облаков в метрах; квадратными скобками обозначены формы облаков: Ci - перистые, Cs - перисто-слоистые, Cc - перисто-кучевые, Ac - высококучевые, As - высокослоистые, Sc - слоисто-кучевые, Ns - слоисто-дождевые, Cu - кучевые, Cb - кучево-дождевые. Подробнее классификацию облаков см. в Атласе облаков (PDF).
  • T - Температура воздуха - температура, измеренная на высоте 2 м над землей.
  • Td - Температура точки росы - температура, при понижении до которой содержащийся в воздухе водяной пар достигнет насыщения.
  • f - Относительная влажность воздуха - влажноcть воздуха, измеренная на высоте 2 м над землей.
  • Te - Эффективная температура - температура, которую ощущает одетый по сезону человек в тени. Характеристика душности погоды. При расчете учитывается влияние влажности воздуха и скорости ветра на теплоощущения человека.
  • Tes - Эффективная температура на солнце - температура, которую ощущает человек, с поправкой на солнечный нагрев. Характеристика знойности погоды. Зависит от высоты солнца над горизонтом, облачности и скорости ветра. Ночью, в пасмурную погоду, а также при ветре 12 м/с и более поправка равна нулю.
  • P - Атмосферное давление - приведенное к уровню моря атмосферное давление.
  • Po - Атмосферное давление - измеренное на уровне метеостанции атмосферное давление.
  • Tmin - Минимальная температура - минимум температуры воздуха на высоте 2 м над землей.
  • Tmax - Максимальная температура - максимум температуры воздуха на высоте 2 м над землей.
  • R - Количество осадков - Количество выпавших осадков за период времени, мм. При наведении курсора мыши на число - период времени, за который выпало указанное количество осадков.
  • R24 - Количество осадков - Количество выпавших осадков за 24 часа, мм.
  • S - Снежный покров - Высота снежного покрова, см. При наведении курсора мыши на число - состояние снежного покрова и степень покрытия местности в баллах.